Regional Weather Roundup
Issued by NWS

Home | Current Version | Previous Version | Text Only | Print | Product List | Glossary Off
Versions: 1 2 3 4 5 6 7 8 9 10 11 12 13 14 15 16 17 18 19 20 21 22 23 24 25 26 27 28 29 30 31 32 33 34 35 36 37 38 39 40 41 42 43 44 45 46 47 48 49 50

000
ASUS44 KMEG 041300
RWRTN
TENNESSEE HOURLY STATE WEATHER ROUNDUP
NATIONAL WEATHER SERVICE MEMPHIS TN
700 AM CST WED MAR 04 2015

TNZ002-004-019-021-049-052-054-088>092-041400-
WEST TENNESSEE

CITY           SKY/WX    TMP DP  RH WIND       PRES   REMARKS
MEMPHIS INTL   FOG       55  53  93 NW6       29.88R VSB 1
NWS MEMPHIS      N/A     53 N/A N/A MISG        N/A
JACKSON        LGT RAIN  52  50  93 NE3       29.89R FOG
DYERSBURG      CLOUDY    45  34  65 N8        29.94R
UNION CITY     CLOUDY    41  41 100 N12       29.93R
PARIS          CLOUDY    43  43 100 N12       29.92R
LEXINGTON      CLOUDY    52  52 100 NE6       29.87S
SAVANNAH       CLOUDY    66  66 100 S14       29.88S
$$

TNZ008-025-027-028-033-062-065-066-041400-
NORTH MIDDLE TENNESSEE

CITY           SKY/WX    TMP DP  RH WIND       PRES   REMARKS
NASHVILLE      RAIN      51  50  96 N7        29.91R VSB 1
CLARKSVILLE    RAIN      45  44  97 N13       29.91R FOG
COOKEVILLE     CLOUDY    63  61  94 SW13      29.88F
CROSSVILLE     CLOUDY    61  58  90 VRB7      29.92S
$$

TNZ061-075-076-078-094-096-097-041400-
SOUTH MIDDLE TENNESSEE

CITY           SKY/WX    TMP DP  RH WIND       PRES   REMARKS
FAYETTEVILLE   CLOUDY    61  61 100 S12         N/A
TULLAHOMA      CLOUDY    63  61  94 SW15      29.93R
WINCHESTER     MOCLDY    64  59  82 SW7       29.94R
COLUMBIA         N/A    N/A N/A N/A SW16      29.85S
SHELBYVILLE    CLOUDY    64  63  94 S12       29.90S
$$

TNZ017-018-042-046-047-041400-
NORTHEAST TENNESSEE

CITY           SKY/WX    TMP DP  RH WIND       PRES   REMARKS
TRI CITIES     LGT RAIN  47  47 100 CALM      29.94R FOG
ELIZABETHTON   LGT RAIN  48  48 100 CALM      29.94R FOG
$$

TNZ012-013-036-069-073-074-041400-
CENTRAL EAST TENNESSEE

CITY           SKY/WX    TMP DP  RH WIND       PRES   REMARKS
KNOXVILLE      PTSUNNY   63  59  87 SW20G30   29.93R
OAK RIDGE      LGT RAIN  56  55  97 W6        29.94F FOG
GATLINBURG     CLOUDY    64  57  77 W14       29.91S
$$

TNZ083-085-099-041400-
SOUTHEAST TENNESSEE

CITY           SKY/WX    TMP DP  RH WIND       PRES   REMARKS
CHATTANOOGA    LGT RAIN  61  59  93 S10       29.97S FOG
$$

SKY/WX REPORTED AS FAIR MEANS FEW OR NO CLOUDS BELOW
12 THOUSAND FEET.




USA.gov is the U.S. government's official web portal to all federal, state and local government web resources and services.